Weather reports worldwide

Advertisment
Paphos, Cyprus (17600): temperature & dewpoint: 17.07.2019 11:00:00 - 23.07.2019 11:00:00 (EEST)Paphos, Cyprus (17600): wind speed: 17.07.2019 11:00:00 - 23.07.2019 11:00:00 (EEST)Paphos, Cyprus (17600): wind direction: 17.07.2019 11:00:00 - 23.07.2019 11:00:00 (EEST)Paphos, Cyprus (17600): reduced air pressure: 17.07.2019 11:00:00 - 23.07.2019 11:00:00 (EEST)Paphos, Cyprus (17600): visibility: 17.07.2019 11:00:00 - 23.07.2019 11:00:00 (EEST)
Date & Time tt [°C] td [°C] ff [km/h] ff [kn] dd ppp [hPa] vv [km]
23.07.2019 11:00:00 - - - - - - -
23.07.2019 10:00:00 29,0 23,0 15 8 W - 10
23.07.2019 09:00:00 27,5 22,2 15 8 W 1004,1 10
23.07.2019 08:00:00 28,0 20,0 11 6 NW - 10
23.07.2019 07:00:00 25,0 16,0 8 4 N - 10
23.07.2019 06:00:00 21,6 15,0 13 7 N 1004,1 20
23.07.2019 05:00:00 22,0 15,0 9 5 NNE - 10
23.07.2019 04:00:00 24,0 16,0 11 6 N - 10
23.07.2019 03:00:00 23,2 14,2 11 6 NNW 1004,5 20
23.07.2019 02:00:00 23,0 13,0 8 4 NNW - 10
23.07.2019 01:00:00 22,0 12,0 9 5 NNW - 10
23.07.2019 00:00:00 23,9 15,1 5 3 N 1005,5 10
22.07.2019 23:00:00 25,0 17,0 8 4 NW - 10
22.07.2019 22:00:00 25,0 12,0 2 1 - - 10
22.07.2019 21:00:00 26,2 15,9 11 6 NW 1005,5 10
22.07.2019 20:00:00 29,0 18,0 18 10 WNW - 10
22.07.2019 19:00:00 31,0 20,0 21 11 WNW - 10
22.07.2019 18:00:00 30,1 23,5 21 11 W 1005,0 10
22.07.2019 17:00:00 30,0 24,0 21 11 W - 10
22.07.2019 16:00:00 30,0 25,0 16 9 W - 10
22.07.2019 15:00:00 29,6 24,7 15 8 W 1006,2 10
22.07.2019 14:00:00 32,0 25,0 11 6 SW - 10
22.07.2019 13:00:00 29,0 24,0 15 8 WSW - 10
22.07.2019 12:00:00 28,9 24,5 16 9 W 1006,6 15
22.07.2019 11:00:00 30,0 24,0 21 11 W - 10
22.07.2019 10:00:00 28,0 24,0 16 9 W - 10
22.07.2019 09:00:00 28,0 24,0 16 9 W 1006,2 10
22.07.2019 08:00:00 27,0 23,0 13 7 WNW - 10
22.07.2019 07:00:00 24,0 20,0 8 4 N - 10
22.07.2019 06:00:00 21,5 17,3 11 6 N 1006,4 10
22.07.2019 05:00:00 23,0 19,0 11 6 NNW - 10
22.07.2019 04:00:00 21,0 15,0 9 5 NNW - 10
22.07.2019 03:00:00 20,8 15,6 5 3 NNW 1006,6 10
22.07.2019 02:00:00 22,0 15,0 0 0 N - 10
22.07.2019 01:00:00 22,0 16,0 4 2 N - 10
22.07.2019 00:00:00 24,8 19,8 11 6 NNW 1007,5 10
21.07.2019 23:00:00 25,0 21,0 5 3 NW - 10
21.07.2019 22:00:00 26,0 23,0 9 5 NNW - 8
21.07.2019 21:00:00 26,4 23,5 21 11 WNW 1007,4 8
21.07.2019 20:00:00 26,0 23,0 21 11 WNW - 10
21.07.2019 19:00:00 28,0 24,0 18 10 W - 10
21.07.2019 18:00:00 28,2 23,3 22 12 W 1007,0 15
21.07.2019 17:00:00 29,0 24,0 26 14 W - 10
21.07.2019 16:00:00 30,0 24,0 22 12 W - 10
21.07.2019 15:00:00 29,8 24,2 24 13 W 1007,8 10
21.07.2019 14:00:00 29,0 24,0 26 14 W - 10
21.07.2019 13:00:00 30,0 24,0 26 14 W - 10
21.07.2019 12:00:00 29,4 23,8 24 13 W 1008,1 10
21.07.2019 11:00:00 29,0 24,0 28 15 W - 10
21.07.2019 10:00:00 28,0 23,0 26 14 W - 10
21.07.2019 09:00:00 26,7 22,5 22 12 WNW 1008,3 10
21.07.2019 08:00:00 27,0 23,0 22 12 WNW - 10
21.07.2019 07:00:00 25,0 22,0 15 8 NW - 10
21.07.2019 06:00:00 22,8 21,1 11 6 NNW 1008,2 10
21.07.2019 05:00:00 23,0 21,0 11 6 NNW - 7
21.07.2019 04:00:00 23,0 22,0 11 6 NNW - 7
21.07.2019 03:00:00 23,8 22,2 13 7 NW 1008,7 15
21.07.2019 02:00:00 24,0 22,0 8 4 NW - 10
21.07.2019 01:00:00 24,0 22,0 11 6 NNW - 10
21.07.2019 00:00:00 24,7 22,2 11 6 NNW 1009,9 10
20.07.2019 23:00:00 25,0 22,0 15 8 WNW - 10
20.07.2019 22:00:00 26,0 22,0 15 8 WNW - 10
20.07.2019 21:00:00 26,0 22,3 18 10 WNW 1009,7 15
20.07.2019 20:00:00 27,0 23,0 22 12 WNW - 10
20.07.2019 19:00:00 27,0 23,0 26 14 WNW - 10
20.07.2019 18:00:00 28,3 23,0 29 16 WNW 1009,3 20
20.07.2019 17:00:00 29,0 23,0 29 16 W - 10
20.07.2019 16:00:00 29,0 23,0 31 17 W - 10
20.07.2019 15:00:00 29,8 23,0 29 16 W 1010,3 10
20.07.2019 14:00:00 30,0 22,0 28 15 W - 10
20.07.2019 13:00:00 30,0 22,0 22 12 W - 10
20.07.2019 12:00:00 29,8 22,5 22 12 W 1010,8 10
20.07.2019 11:00:00 29,0 23,0 18 10 W - 10
20.07.2019 10:00:00 28,0 23,0 18 10 W - 10
20.07.2019 09:00:00 27,1 22,7 15 8 W 1010,4 10
20.07.2019 08:00:00 27,0 22,0 5 3 N - 10
20.07.2019 07:00:00 23,0 18,0 8 4 NNE - 10
20.07.2019 06:00:00 21,2 18,9 9 5 N 1009,8 20
20.07.2019 05:00:00 22,0 19,0 9 5 N - 10
20.07.2019 04:00:00 22,0 20,0 9 5 N - 10
20.07.2019 03:00:00 22,3 19,8 11 6 NNW 1009,7 15
20.07.2019 02:00:00 23,0 20,0 8 4 N - 10
20.07.2019 01:00:00 23,0 20,0 9 5 NNW - 10
20.07.2019 00:00:00 24,1 21,0 8 4 NNW 1011,0 10
19.07.2019 23:00:00 25,0 21,0 9 5 WNW - 10
19.07.2019 22:00:00 25,0 22,0 13 7 WNW - 10
19.07.2019 21:00:00 25,5 21,8 16 9 WNW 1010,6 10
19.07.2019 20:00:00 26,0 22,0 21 11 W - 10
19.07.2019 19:00:00 27,0 22,0 24 13 W - 10
19.07.2019 18:00:00 28,4 21,9 22 12 W 1010,2 20
19.07.2019 17:00:00 29,0 22,0 22 12 W - 10
19.07.2019 16:00:00 29,0 22,0 22 12 W - 10
19.07.2019 15:00:00 29,3 21,8 21 11 W 1010,6 10
19.07.2019 14:00:00 30,0 22,0 21 11 W - 10
19.07.2019 13:00:00 28,0 21,0 18 10 W - 10
19.07.2019 12:00:00 27,7 20,8 21 11 W 1010,9 15
19.07.2019 11:00:00 28,0 21,0 18 10 W - 10
19.07.2019 10:00:00 27,0 21,0 15 8 W - 10
19.07.2019 09:00:00 26,8 21,3 13 7 W 1010,5 10
19.07.2019 08:00:00 26,0 19,0 9 5 N - 10
19.07.2019 07:00:00 23,0 18,0 9 5 NNE - 10
19.07.2019 06:00:00 20,7 16,9 13 7 NNE 1009,8 10
19.07.2019 05:00:00 21,0 18,0 11 6 NNE - 10
19.07.2019 04:00:00 21,0 18,0 8 4 NE - 10
19.07.2019 03:00:00 21,7 18,5 9 5 N 1009,0 10
19.07.2019 02:00:00 22,0 19,0 8 4 N - 10
19.07.2019 01:00:00 23,0 19,0 8 4 N - 10
19.07.2019 00:00:00 24,2 19,9 8 4 N 1009,3 10
18.07.2019 23:00:00 24,0 20,0 5 3 NNW - 10
18.07.2019 22:00:00 25,0 21,0 11 6 NW - 10
18.07.2019 21:00:00 25,5 21,4 15 8 WNW 1008,3 10
18.07.2019 20:00:00 26,0 21,0 15 8 W - 10
18.07.2019 19:00:00 27,0 21,0 18 10 WNW - 10
18.07.2019 18:00:00 28,1 21,4 22 12 W 1007,1 12
18.07.2019 17:00:00 29,0 21,0 22 12 W - 10
18.07.2019 16:00:00 28,0 21,0 21 11 W - 10
18.07.2019 15:00:00 28,1 20,9 21 11 W 1007,2 10
18.07.2019 14:00:00 28,0 21,0 22 12 W - 10
18.07.2019 13:00:00 29,0 21,0 21 11 WSW - 10
18.07.2019 12:00:00 28,1 21,1 18 10 WSW 1006,8 10
18.07.2019 11:00:00 28,0 21,0 18 10 W - 10
18.07.2019 10:00:00 28,0 21,0 21 11 W - 10
18.07.2019 09:00:00 27,2 20,5 16 9 W 1005,4 10
18.07.2019 08:00:00 26,0 21,0 15 8 WSW - 10
18.07.2019 07:00:00 25,0 21,0 11 6 W - 10
18.07.2019 06:00:00 25,2 20,7 15 8 WSW 1003,9 10
18.07.2019 05:00:00 25,0 21,0 11 6 WSW - 10
18.07.2019 04:00:00 25,0 20,0 13 7 W - 10
18.07.2019 03:00:00 25,4 21,1 16 9 W 1003,4 15
18.07.2019 02:00:00 25,0 21,0 16 9 W - 10
18.07.2019 01:00:00 26,0 22,0 18 10 WSW - 10
18.07.2019 00:00:00 25,8 21,2 21 11 W 1003,9 15
17.07.2019 23:00:00 26,0 21,0 24 13 WSW - 10
17.07.2019 22:00:00 26,0 21,0 24 13 W - 10
17.07.2019 21:00:00 27,0 21,0 24 13 W - 10
17.07.2019 20:00:00 27,0 21,0 22 12 W - 10
17.07.2019 19:00:00 28,0 22,0 26 14 W - 10
17.07.2019 18:00:00 28,1 22,6 21 11 W 1002,1 10
17.07.2019 17:00:00 28,0 23,0 22 12 W - 10
17.07.2019 16:00:00 30,0 23,0 16 9 SW - 10
17.07.2019 15:00:00 30,7 22,6 15 8 SE 1002,4 10
17.07.2019 14:00:00 31,0 22,0 16 9 SE - 10
17.07.2019 13:00:00 32,0 19,0 21 11 SE - 10
17.07.2019 12:00:00 31,6 15,5 22 12 SE 1002,1 20
17.07.2019 11:00:00 32,0 11,0 22 12 SE - 10

tt = temperature
td = dewpoint
ff = wind speed
dd = wind direction
ppp = reduced air pressure
vv = visibility

Next stations